Simultaneous Nadir Overpasses (SNOs) Predictions

Prediction of SNOs between NOAA-21 and METOP-C Satellite Orbit:

Table of predicted SNOs for the next 14.0 days since TLE Epoch: 4/8/2023
Index Date (NOAA-21) Time (NOAA-21) Lat,Lon (NOAA-21) SZA (NOAA-21 ) Date (METOP-C) Time (METOP-C) Lat,Lon (METOP-C) SZA (METOP-C ) Distance(km) Time Diff (sec)
1 04/18/2023 01:34:14 -73.45, -33.37 117.07 04/18/2023 01:35:21 -73.41, -30.55 117.25 89.79 67
2 04/18/2023 02:24:56 73.26, 134.36 62.72 04/18/2023 02:26:05 73.23, 136.38 62.57 65.09 69
3 04/18/2023 03:15:38 -73.16, -58.10 117.41 04/18/2023 03:16:48 -73.14, -56.48 117.52 52.31 70
4 04/18/2023 04:06:20 72.97, 109.61 62.37 04/18/2023 04:07:32 72.95, 110.45 62.30 27.47 72
5 04/18/2023 04:57:02 -72.87, -82.86 117.75 04/18/2023 04:58:16 -72.81, -82.51 117.84 13.05 74
6 04/18/2023 05:47:45 72.73, 84.75 62.09 04/18/2023 05:48:58 72.73, 84.65 62.07 3.30 73
7 04/18/2023 06:38:29 -72.73,-107.94 117.93 04/18/2023 06:39:39 -72.74,-108.00 117.93 2.29 70
8 04/18/2023 07:29:15 72.74, 59.35 62.07 04/18/2023 07:30:19 72.76, 59.37 62.08 1.95 64
9 04/18/2023 08:19:59 -72.74,-133.34 117.94 04/18/2023 08:21:01 -72.72,-133.38 117.97 2.71 62
10 04/18/2023 09:10:45 72.76, 33.95 62.06 04/18/2023 09:11:41 72.74, 33.99 62.03 2.16 56
11 04/18/2023 10:01:29 -72.76,-158.73 117.95 04/18/2023 10:02:22 -72.75,-158.66 117.97 2.61 53
12 04/18/2023 10:52:14 72.72, 8.66 61.99 04/18/2023 10:53:03 72.72, 8.61 61.99 1.67 49
13 04/18/2023 11:42:58 -72.72, 175.97 118.02 04/18/2023 11:43:44 -72.73, 175.96 118.01 1.87 46
14 04/18/2023 12:33:44 72.73, -16.74 61.98 04/18/2023 12:34:25 72.70, -16.77 61.95 3.40 41
15 04/18/2023 13:24:28 -72.73, 150.57 118.03 04/18/2023 13:25:06 -72.71, 150.58 118.06 1.73 38
16 04/18/2023 14:15:14 72.74, -42.14 61.97 04/18/2023 14:15:46 72.73, -42.05 61.95 3.14 32
17 04/18/2023 15:05:57 -72.69, 125.28 118.10 04/18/2023 15:06:28 -72.69, 125.20 118.10 2.69 31
18 04/18/2023 15:56:43 72.70, -67.43 61.90 04/18/2023 15:57:08 72.71, -67.43 61.91 0.96 25
19 04/18/2023 16:47:27 -72.70, 99.88 118.11 04/18/2023 16:47:49 -72.72, 99.92 118.10 2.79 22
20 04/18/2023 17:38:13 72.71, -92.83 61.89 04/18/2023 17:38:30 72.69, -92.82 61.86 2.68 17
21 04/18/2023 18:28:57 -72.71, 74.48 118.12 04/18/2023 18:29:11 -72.70, 74.54 118.14 2.17 14
22 04/18/2023 19:19:42 72.67,-118.13 61.83 04/18/2023 19:19:52 72.67,-118.20 61.82 2.39 10
23 04/18/2023 20:10:26 -72.67, 49.19 118.19 04/18/2023 20:10:33 -72.68, 49.16 118.18 1.41 7
24 04/18/2023 21:01:12 72.69,-143.52 61.81 04/18/2023 21:01:13 72.70,-143.47 61.82 2.29 1
25 04/18/2023 21:51:56 -72.69, 23.79 118.20 04/18/2023 21:51:55 -72.66, 23.78 118.23 2.64 1
26 04/18/2023 22:42:42 72.70,-168.92 61.80 04/18/2023 22:42:35 72.68,-168.86 61.78 3.01 7
27 04/18/2023 23:33:25 -72.65, -1.50 118.27 04/18/2023 23:33:17 -72.64, -1.60 118.27 3.40 8
28 04/19/2023 00:24:11 72.66, 165.78 61.73 04/19/2023 00:23:57 72.66, 165.76 61.74 0.67 14
29 04/19/2023 01:14:55 -72.66, -26.90 118.28 04/19/2023 01:14:38 -72.67, -26.88 118.27 1.67 17
30 04/19/2023 02:05:41 72.67, 140.38 61.72 04/19/2023 02:05:19 72.64, 140.38 61.70 3.52 22
31 04/19/2023 02:56:25 -72.67, -52.30 118.29 04/19/2023 02:56:00 -72.65, -52.26 118.31 2.33 25
32 04/19/2023 03:47:10 72.63, 115.09 61.66 04/19/2023 03:46:41 72.62, 115.00 61.65 3.33 29
33 04/19/2023 04:37:54 -72.63, -77.59 118.36 04/19/2023 04:37:22 -72.63, -77.64 118.35 1.71 32
34 04/19/2023 05:28:40 72.64, 89.69 61.64 04/19/2023 05:28:02 72.65, 89.72 61.66 1.19 38
35 04/19/2023 06:19:24 -72.64,-102.99 118.37 04/19/2023 06:18:43 -72.66,-102.92 118.35 3.11 41
36 04/19/2023 07:10:09 72.61, 64.40 61.58 04/19/2023 07:09:24 72.63, 64.34 61.61 3.30 45
37 04/19/2023 08:00:54 -72.66,-128.39 118.38 04/19/2023 08:00:05 -72.64,-128.30 118.39 3.18 49
38 04/19/2023 08:51:39 72.62, 39.00 61.57 04/19/2023 08:50:46 72.61, 38.96 61.57 1.59 53
39 04/19/2023 09:42:23 -72.62,-153.68 118.45 04/19/2023 09:41:27 -72.62,-153.69 118.43 0.61 56
40 04/19/2023 10:33:09 72.63, 13.60 61.55 04/19/2023 10:32:07 72.64, 13.68 61.57 2.94 62
41 04/19/2023 11:23:53 -72.63,-179.08 118.46 04/19/2023 11:22:49 -72.60,-179.07 118.48 3.01 64
42 04/19/2023 12:14:37 72.59, -11.69 61.49 04/19/2023 12:13:28 72.62, -11.70 61.53 3.27 69
43 04/19/2023 13:05:21 -72.59, 155.62 118.53 04/19/2023 13:04:10 -72.58, 155.55 118.52 2.53 71
44 04/19/2023 13:56:05 72.50, -36.89 61.37 04/19/2023 13:54:52 72.50, -37.29 61.40 13.40 73
45 04/19/2023 14:46:48 -72.45, 130.53 118.71 04/19/2023 14:45:34 -72.46, 129.97 118.65 18.97 74
46 04/19/2023 15:37:29 72.20, -61.68 61.02 04/19/2023 15:36:19 72.22, -63.17 61.12 50.71 70
47 04/19/2023 16:28:12 -72.16, 105.73 119.05 04/19/2023 16:27:02 -72.13, 103.99 118.97 59.57 70
48 04/19/2023 17:18:53 71.91, -86.49 60.68 04/19/2023 17:17:46 71.94, -89.04 60.85 88.05 67



Historial Predications of SNOs between NOAA-21 and METOP-C
